SCP
0 0 0 0 0 0 0 0 0 0 0 0 0 0 0 0 0 0 0 0 0 0 0 0 0 0 0 0 0 0 0 0 0 0 0 0 0 0 0 0 0 0 -0 -0 -0 0 0 0 0
0 0 0 0 0 0 0 0 0 0 0 0 0 0 0 0 0 0 0 0 0 0 0 0 0 0 0 0 0 0 0 0 0 0 0 0 0 0 0 0 0 0 0 0 0 0 0 0 0
0 0 0 0 0 0 0 0 0 0 0 0 0 0 0 0 0 0 0 0 0 0 0 0 0 0 0 0 0 0 0 0 0 0 0 0 0 0 0 0 0 0 0 0 0 0 0 0 0
0 0 -0 0 0 0 0 0 0 0 0 0 0 0 0 0 0 0 0 0 0 0 0 0 0 0 0 0 0 0 0 0 0 0 0 0 0 0 0 0 0 0 0 0 0 0 0 0 0
0 0 0 0 0 0 0 0 0 0 0 0 0 0 0 0 0 0 0 0 0 0 0 0 0 0 0 0 0 0 0 0 0 0 0 0 0 0 0 0 0 0 0 0 0 0 0 0 0
0 0 0 0 0 0 0 0 0 0 0 0 0 0 0 0 0 0 0 0 0 0 0 0 0 0 0 0 0 0 0 0 0 0 0 0 0 0 0 0 0 0 0 0 0 0 0 0 0
0 0 0 0 0 0 0 0 0 0 0 0 0 0 0 1 1 1 0 0 0 0 0 0 0 0 0 0 0 0 0 0 0 0 0 0 0 0 0 0 0 0 0 0 0 0 0 0 0
0 0 0 0 0 0 0 0 0 0 0 0 0 0 1 1 1 1 1 0 0 0 0 0 0 0 0 0 0 0 0 0 0 0 0 0 0 0 0 0 0 0 0 0 0 0 0 0 0
0 0 0 0 0 0 0 0 0 0 0 0 1 1 1 1 1 1 1 1 1 0 0 0 0 0 0 0 0 0 0 0 0 0 0 0 0 0 0 0 0 0 0 0 0 0 0 0 0
0 0 0 0 0 0 0 0 0 0 0 1 1 1 1 1 1 1 1 1 1 1 0 0 0 0 0 0 0 0 0 0 0 0 0 0 0 0 0 0 0 0 0 0 0 0 0 0 0
0 0 0 0 0 0 0 0 0 0 1 1 1 1 1 1 1 1 1 1 1 1 0 0 0 0 0 0 0 0 1 1 0 0 1 1 1 0 0 1 1 0 0 0 0 0 0 0 0
0 0 0 0 0 0 0 0 0 1 1 1 1 1 1 1 1 1 1 1 1 1 1 1 1 1 1 1 1 1 1 1 1 1 1 1 1 1 1 1 1 1 1 1 1 1 1 1 1
0 0 0 0 0 0 0 0 0 1 1 1 1 1 1 1 1 1 1 1 1 1 1 1 1 1 1 1 1 1 1 1 1 1 1 1 1 1 1 1 1 1 1 1 1 1 1 1 1
0 0 0 0 0 0 0 0 0 1 1 1 1 1 1 1 1 1 1 1 1 1 1 1 1 1 1 1 1 1 1 1 1 1 1 1 1 1 1 1 1 1 1 1 1 1 1 1 1
0 0 0 0 0 0 0 0 0 1 1 1 1 1 1 1 1 1 1 1 1 1 1 1 1 1 1 0 0 0 1 1 1 1 0 0 0 0 0 1 1 1 1 1 1 1 1 1 1
0 0 0 0 0 0 0 0 0 1 1 1 1 1 1 1 1 1 1 1 1 1 1 1 1 1 1 0 0 0 0 0 0 0 0 0 0 0 0 0 0 0 0 0 0 0 1 1 1
0 0 0 0 0 0 0 0 0 1 1 1 1 1 1 1 1 1 1 1 1 1 1 1 1 1 0 0 0 0 0 0 0 0 0 0 0 0 0 0 0 0 0 0 0 0 0 1 1
0 0 0 0 0 0 0 0 0 0 1 1 1 1 1 1 1 1 1 1 1 1 1 1 1 1 0 0 0 0 0 0 0 0 0 0 0 0 0 0 0 0 0 0 0 0 0 0 0
0 0 0 0 0 0 0 0 0 0 0 0 1 1 1 1 1 1 1 0 0 0 1 1 1 0 0 0 0 0 0 0 0 0 0 0 0 0 0 0 0 0 0 0 0 0 0 0 0
0 0 0 0 0 0 0 0 0 0 0 0 0 0 0 0 0 0 0 0 0 0 0 0 0 0 0 0 0 0 0 0 0 0 0 0 0 0 0 0 0 0 0 0 0 0 0 0 0
0 0 0 0 0 0 0 0 0 0 0 0 0 0 0 0 0 0 0 0 0 0 0 0 0 0 0 0 0 0 0 0 0 0 0 0 0 0 0 0 0 0 0 0 0 0 0 0 0
0 0 0 0 0 0 0 0 0 0 0 0 0 0 0 0 0 0 0 0 0 0 0 0 0 0 0 0 0 0 0 0 0 0 0 0 0 0 0 0 0 0 0 0 0 0 0 0 0
0 0 0 0 0 0 0 0 0 0 0 0 0 0 0 0 0 0 0 0 0 0 0 0 0 0 0 0 0 0 0 0 0 0 0 0 0 0 0 0 0 0 0 0 0 0 0 0 0
0 0 0 0 0 0 0 0 0 0 0 0 0 0 0 0 0 0 0 0 0 0 0 0 0 0 0 0 0 0 0 0 0 0 0 0 0 0 0 0 0 0 0 0 0 0 0 0 0
0 0 0 0 0 0 0 0 0 0 0 0 0 0 0 0 0 0 0 0 0 0 0 0 0 0 0 0 0 0 0 0 0 0 0 0 0 0 0 0 0 0 0 0 0 0 0 0 0
0 0 0 0 0 0 0 0 0 0 0 0 0 0 0 0 0 0 0 0 0 0 0 0 0 0 0 0 0 0 0 0 0 0 0 0 0 0 0 0 0 0 0 0 0 0 0 0 0
0 0 0 -0 0 0 0 0 0 0 0 0 0 0 0 0 0 0 0 0 0 0 0 0 0 0 0 0 0 0 0 0 0 0 0 0 0 0 0 0 0 0 0 0 0 0 0 0 0
0 0 0 -0 0 0 0 0 0 0 0 0 0 0 0 0 0 0 0 0 0 0 0 0 0 0 0 0 0 0 0 0 0 0 0 0 0 0 0 0 0 0 0 0 0 0 0 0 0
0 0 0 -0 0 0 0 0 0 0 0 0 0 0 0 0 0 0 0 0 0 0 0 0 0 0 0 0 0 0 0 0 0 0 0 0 0 0 0 0 0 0 0 0 0 0 0 0 0
0 0 0 -0 -0 0 0 0 0 0 0 0 0 0 0 0 0 0 0 0 0 0 0 0 0 0 0 0 0 0 0 0 0 0 0 0 0 0 0 0 0 0 0 0 0 0 0 0 0
Wind_Speed
11 9 6 5 7 6 3 6 6 8 6 5 5 4 4 6 6 6 7 13 16 18 19 18 15 14 13 12 13 13 13 13 13 13 12 12 11 11 10 9 8 7 6 6 6 7 7 8 8
9 6 6 6 7 2 5 7 9 10 7 4 1 2 3 7 7 8 10 13 17 18 18 17 17 14 13 13 12 12 12 12 12 12 11 11 10 10 9 8 7 7 6 6 6 6 7 7 7
7 7 6 6 4 4 5 9 10 9 4 2 2 4 5 7 6 6 10 16 17 17 16 17 18 15 14 13 12 12 12 12 11 11 10 10 9 9 8 8 7 6 6 6 6 6 6 6 7
6 6 6 7 3 4 5 8 9 7 4 2 0 5 7 7 4 7 15 17 18 16 16 18 17 15 14 13 13 12 12 11 11 10 9 9 8 7 7 7 6 6 6 6 5 5 6 6 6
7 6 8 7 2 3 4 8 9 7 5 3 1 5 8 7 7 12 16 17 17 16 15 18 16 15 14 14 13 12 12 11 10 9 9 8 7 6 6 6 6 5 5 5 5 5 6 5 5
6 6 9 7 1 3 4 7 8 8 5 3 1 5 8 7 9 13 14 14 15 15 15 17 16 14 14 13 12 12 11 11 10 9 8 8 7 6 5 5 5 5 5 5 5 5 5 5 6
7 7 8 7 5 2 4 7 8 8 6 5 2 5 9 9 10 11 12 12 12 13 13 14 14 13 13 12 11 11 10 10 9 9 8 7 7 7 6 6 6 5 5 5 5 5 6 6 6
5 7 8 6 5 3 4 7 6 7 5 4 3 3 9 11 12 12 11 10 10 10 11 12 12 12 11 12 11 10 9 9 8 8 8 7 7 8 7 8 8 6 6 6 6 6 7 7 7
6 8 6 4 5 4 5 8 6 4 2 3 5 7 12 16 15 14 12 11 10 10 9 10 10 9 9 9 11 10 10 8 8 9 9 8 7 7 8 7 6 6 7 7 7 8 8 8 9
6 7 5 5 7 9 9 8 7 2 1 4 8 11 15 15 14 14 13 13 13 11 10 8 8 8 8 6 7 6 7 7 7 5 6 5 4 4 5 4 5 7 7 8 9 8 9 10 7
6 7 6 7 7 9 9 7 5 5 1 4 5 11 13 13 12 12 11 11 12 11 9 8 7 6 6 4 4 3 3 3 5 5 4 4 3 3 4 2 4 6 8 7 6 8 7 7 5
7 7 8 9 9 9 8 5 3 4 5 5 4 10 12 12 11 11 10 10 10 9 8 7 6 5 4 3 2 3 2 2 2 2 3 3 2 3 3 2 3 3 3 4 4 4 6 7 7
9 8 7 7 7 6 5 1 1 4 5 5 7 9 10 10 9 8 9 9 8 7 6 6 4 4 4 3 2 2 1 1 1 2 2 3 3 3 3 2 3 4 4 4 5 6 6 7 7
6 8 8 5 3 2 2 2 2 5 5 6 8 8 8 8 8 8 8 8 8 8 7 6 5 4 3 2 1 1 1 1 2 1 1 2 2 2 2 3 3 4 4 4 5 6 6 6 7
8 10 6 1 1 1 3 4 3 5 4 7 7 7 7 6 6 6 6 6 7 7 7 6 6 5 4 2 2 1 1 1 1 1 0 0 1 1 2 2 3 3 3 4 5 6 6 7 8
9 9 4 5 1 1 7 3 6 3 5 7 7 7 7 7 6 5 5 5 6 7 7 6 5 5 5 3 2 1 1 1 1 1 1 0 0 1 1 2 2 2 3 3 4 5 5 6 7
7 4 4 4 3 1 5 3 6 3 5 7 6 7 7 7 7 5 4 5 6 6 7 6 6 6 5 4 3 2 1 1 1 1 0 1 1 1 2 2 2 3 3 4 5 4 5 6 6
7 7 4 3 4 1 0 5 5 3 4 6 6 6 6 7 7 5 5 5 6 7 6 6 6 6 6 4 3 2 2 2 1 1 1 0 0 1 3 2 2 4 4 4 4 5 5 6 6
8 7 5 4 2 1 2 4 6 5 4 5 5 6 7 7 7 6 5 5 6 6 7 6 5 6 4 3 3 2 2 2 1 1 1 1 1 1 2 4 2 4 4 5 6 6 6 6 5
6 6 2 4 2 1 3 4 5 5 5 4 5 6 7 8 8 7 6 6 6 6 6 6 5 5 4 2 1 1 0 1 1 1 1 2 2 3 3 3 5 4 4 5 6 6 6 6 5
5 5 4 0 4 4 4 5 6 5 5 5 6 6 6 8 9 9 8 6 6 6 6 5 4 4 3 3 3 2 2 3 3 3 3 2 3 4 4 4 6 5 7 6 6 7 7 7 7
3 2 2 3 5 2 3 1 6 6 7 7 7 8 8 8 8 8 7 7 6 6 6 5 5 4 3 3 3 3 3 4 3 3 3 3 4 5 5 6 6 6 8 7 8 7 6 7 8
2 1 2 4 4 2 1 3 6 6 7 8 9 8 8 8 8 7 7 7 6 6 5 5 4 4 3 3 3 4 5 4 4 4 4 6 5 6 6 6 6 6 8 8 8 8 9 8 9
5 5 5 6 7 1 2 3 3 4 5 8 9 9 9 8 8 7 6 6 5 5 5 5 5 4 4 4 3 4 5 6 7 7 6 6 6 6 7 7 6 8 8 7 8 8 10 9 9
6 6 5 4 3 3 3 3 4 4 4 6 9 9 9 8 8 8 7 6 5 5 4 4 4 4 3 3 3 4 5 6 7 7 7 7 7 6 5 7 7 8 7 8 8 8 9 9 9
4 6 5 6 5 2 4 0 5 5 5 6 7 7 8 8 8 7 6 6 5 4 4 4 3 2 2 3 3 4 5 6 5 5 7 8 7 7 7 8 8 9 9 9 8 9 9 8 9
3 3 4 6 3 2 3 3 6 6 7 8 9 9 9 8 7 7 6 5 5 4 3 3 2 2 2 2 3 4 4 5 6 6 7 7 6 7 8 8 9 9 9 9 9 9 9 9 10
5 2 4 4 4 2 2 3 3 9 10 10 10 10 9 8 8 7 6 6 4 4 3 2 2 2 3 4 4 4 4 5 6 7 7 8 8 8 9 10 10 9 9 9 10 10 9 9 9
5 4 3 3 5 6 2 3 5 6 8 10 10 9 9 9 9 8 7 6 6 4 4 3 3 3 3 4 4 5 6 6 7 7 8 8 8 9 9 10 10 10 10 10 9 11 11 11 11
4 3 4 5 2 4 5 3 7 5 6 8 8 9 9 8 8 8 7 7 5 4 3 3 3 4 4 4 5 6 6 7 7 8 8 8 9 9 10 10 10 11 11 10 11 11 11 11 12
Wind_Direction
183 195 219 238 241 230 60 44 11 358 358 1 347 340 0 15 357 45 111 145 143 142 141 150 150 150 148 144 143 143 143 146 149 150 151 151 151 150 150 148 146 143 136 124 116 114 113 113 115
183 196 226 241 264 256 75 30 9 357 351 343 2 2 43 63 50 93 134 142 146 143 146 153 149 150 147 143 140 140 141 142 144 146 149 150 151 152 152 150 149 149 141 132 126 122 119 119 121
190 226 256 255 268 343 20 11 356 351 355 334 30 45 40 54 75 110 132 148 147 145 147 143 152 152 149 145 141 139 139 140 142 144 147 150 152 153 154 153 154 153 147 142 137 131 128 128 129
209 224 238 253 270 24 351 349 346 345 10 13 98 95 84 48 47 114 139 151 149 150 148 143 155 153 152 149 146 143 142 142 143 145 148 151 155 158 158 159 160 159 156 154 150 144 139 139 140
238 256 253 248 274 11 348 351 347 356 6 26 75 100 87 62 83 125 145 152 153 151 145 144 155 155 154 153 152 150 148 147 148 150 153 157 162 166 165 167 168 170 169 165 159 156 156 157 157
236 252 261 269 312 347 3 2 353 6 15 50 91 109 84 84 112 133 144 153 154 150 146 142 154 157 157 158 156 154 153 152 154 158 163 168 173 179 181 185 189 189 186 180 176 175 175 177 178
269 270 276 288 297 296 18 356 360 358 11 29 5 111 110 109 117 129 139 153 152 152 145 148 157 159 161 161 161 159 159 160 163 167 172 179 184 191 197 201 204 207 205 199 196 196 198 199 198
284 272 261 264 277 297 8 346 351 348 16 26 351 103 125 129 130 129 137 146 149 152 152 156 159 161 167 167 164 165 166 168 172 176 183 189 198 205 206 211 203 219 223 221 219 216 214 213 213
258 256 266 290 300 319 338 329 346 356 50 56 42 48 106 128 133 133 138 147 153 158 160 163 159 166 175 173 160 174 175 178 187 191 194 205 215 210 202 214 185 217 227 230 230 229 224 223 217
244 266 305 331 313 312 318 318 329 298 118 100 92 95 118 136 143 145 152 158 160 164 166 168 163 169 177 176 162 191 190 178 204 199 202 216 225 239 244 150 202 232 237 236 229 230 228 231 227
246 278 315 308 309 306 303 311 319 293 10 49 109 134 139 143 147 152 157 161 159 163 166 163 162 174 178 175 175 195 205 183 206 210 212 228 241 236 245 231 208 224 234 239 222 223 233 234 240
257 273 289 298 314 305 304 305 333 7 16 21 108 140 145 152 153 154 154 158 157 165 165 160 164 170 179 187 180 201 221 206 220 209 233 231 243 259 263 264 268 254 252 253 254 249 246 251 249
250 276 294 300 300 305 291 299 68 52 50 76 111 136 146 148 142 140 148 151 152 158 160 150 155 171 179 187 222 196 227 261 241 255 245 259 253 259 261 263 267 268 263 253 250 253 254 253 249
290 290 290 293 302 271 231 142 127 74 80 100 114 125 134 131 132 135 140 146 153 163 161 155 166 167 175 193 214 212 238 226 259 245 254 251 254 260 261 252 263 269 274 279 274 266 259 255 253
274 274 257 167 223 168 227 152 87 77 103 106 107 104 103 104 114 125 132 144 152 157 154 161 162 164 167 180 205 188 216 209 207 160 183 242 259 268 272 267 262 282 283 271 265 269 264 257 255
248 254 256 101 5 168 251 142 93 98 128 115 112 109 104 96 93 94 115 133 138 146 148 154 155 153 162 169 185 173 195 189 184 182 165 144 342 290 282 294 295 305 284 280 275 264 268 266 266
226 287 334 90 63 278 256 98 100 111 133 122 122 122 115 106 94 94 111 129 131 130 135 142 148 147 148 155 166 165 176 196 188 186 135 76 17 350 315 322 344 293 291 291 286 290 283 277 273
337 328 332 19 54 312 191 103 112 115 120 123 126 123 123 118 111 109 108 113 122 129 133 138 148 144 153 155 160 164 163 168 174 167 95 18 287 319 315 288 313 299 292 290 293 293 279 282 278
308 305 323 46 57 303 111 117 120 122 133 137 134 131 124 120 120 123 118 121 133 138 141 145 147 150 165 164 181 178 176 184 181 174 128 235 299 321 300 307 313 293 296 302 296 291 280 276 288
272 285 312 116 112 264 131 120 122 137 144 143 139 133 134 135 136 139 142 148 146 143 141 148 161 159 177 159 189 216 237 232 213 239 183 252 273 283 274 299 294 297 297 278 284 285 292 292 289
274 302 321 127 152 176 194 152 141 148 154 151 150 149 151 149 149 150 148 151 153 149 153 151 154 160 172 173 195 185 204 228 223 235 232 252 273 272 288 286 290 302 288 287 290 285 278 288 287
293 358 274 207 226 156 270 220 134 158 166 166 164 161 162 154 151 151 155 159 160 156 157 159 168 173 180 206 223 245 265 279 297 288 289 283 274 280 280 281 283 285 288 290 276 277 283 277 279
28 122 220 230 244 226 193 294 116 159 174 173 171 169 165 161 162 162 167 167 166 167 170 172 176 184 193 223 233 257 272 288 292 293 289 286 279 274 278 283 286 284 281 286 289 290 278 276 275
147 176 190 221 241 229 50 298 116 146 170 163 165 168 170 170 172 173 173 173 178 182 188 189 183 195 207 226 242 263 284 292 298 294 295 285 282 278 279 283 285 282 284 285 278 278 271 270 276
216 253 252 230 226 76 98 276 81 115 157 166 167 171 176 180 183 183 185 187 191 195 196 199 195 204 215 234 256 272 283 285 280 289 295 295 294 292 297 299 293 288 286 283 281 274 276 273 268
241 279 310 321 340 66 165 232 102 136 159 175 179 179 181 185 185 189 191 190 193 188 189 193 196 218 238 253 270 282 284 284 295 304 305 299 298 305 314 296 288 286 284 282 280 277 269 266 267
234 265 332 286 283 278 113 128 142 162 181 187 186 187 188 188 183 184 181 179 179 175 174 182 192 211 240 264 274 273 284 297 305 300 281 291 302 298 298 294 289 287 284 283 282 275 277 273 268
298 256 231 287 319 310 130 166 146 171 184 186 189 188 183 180 176 172 169 167 161 159 160 174 214 248 269 269 280 291 291 288 289 291 303 300 296 295 292 288 287 285 283 279 276 276 269 269 268
187 208 274 299 315 312 358 89 98 166 178 183 184 183 174 175 171 168 166 164 168 178 189 208 239 256 266 281 286 292 292 295 291 288 292 295 293 294 289 287 285 283 281 279 276 274 278 271 270
264 267 244 284 300 298 302 93 123 165 179 188 179 170 167 168 166 166 167 171 182 195 214 234 265 273 277 283 284 288 294 294 294 296 299 296 292 290 289 288 286 284 283 282 279 277 277 274 271